Weather in Galichny

Russia / Khabarovsk Krai     50°43′21″N   137°12′06″E
temp.,
°C
wind,
m/s
gust,
m/s
humid.,
%
clouds,
%
prec.,
mm/h
press.,
hPa
HPBL,
m
21 january, fri
fri2101:00−26sse1110098 0.0 103113
04:00−27sse11100100 0.0 103220
07:00−27se11100100 0.0 103330
10:00−25sse259899 0.1 1033187
13:00−21s3592100 0.0 1032448
16:00−20s3592100 0.1 1031477
19:00−25se2110089 0.0 103217
22:00−27se1110088 0.0 103218
22 january, sat
sat2201:00−28se11100100 0.0 103220
04:00−28se1110099 0.0 103223
07:00−28se11100100 0.0 103230
10:00−26sse239996 0.1 1032122
13:00−21sse3591100 0.0 1031401
16:00−20sse3692100 0.0 1030443
19:00−24se2110063 0.0 103026
22:00−26ese2110072 0.0 103026
23 january, sun
sun2301:00−27se11100100 0.0 103022
04:00−27se11100100 0.1 102930
07:00−27se11100100 0.0 102928
10:00−25sse1299100 0.1 1029112
13:00−21s2492100 0.0 1028389
16:00−21s2491100 0.0 1026383
19:00−26se1110064 0.0 102614
22:00−27se2110088 0.0 102622
24 january, mon
mon2401:00−28se1110099 0.0 102624
04:00−28se22100100 0.0 102642
07:00−28se23100100 0.0 102662
10:00−26se2599100 0.1 1026184
13:00−22s3792100 0.0 1025459
16:00−21s3792100 0.1 1024475
19:00−26se2110071 0.0 102519
22:00−27ese1110087 0.0 102519
25 january, tue
tue2501:00−28se11100100 0.0 102614
04:00−28se11100100 0.1 102616
07:00−28se1110098 0.0 102615
10:00−25se12100100 0.1 102687
13:00−19sse2491100 0.0 1024365
16:00−18sse248998 0.0 1023372
19:00−25se1110012 0.0 10249
22:00−26ese1110096 0.0 102410